Wind_Speed
25 28 26 24 26 25 25 23 29 20 16 27 35 37 35 36 37 42 41 40 41 43 44 46 46 48 48 49 48 50 48 49 49 51 50 49 50 49 49 49 49 48 46 45
29 28 24 26 27 28 30 33 37 33 32 34 38 43 47 41 42 44 43 40 37 37 34 36 39 40 42 44 40 41 41 44 48 47 48 49 49 50 50 50 51 53 53 49
32 28 29 34 34 35 36 38 38 37 38 42 42 46 39 34 32 35 35 36 35 33 37 36 39 43 48 47 43 34 40 43 43 44 46 47 49 51 51 51 49 50 51 50
29 26 29 26 32 36 37 34 32 35 37 40 35 42 35 28 28 35 36 38 36 36 40 41 44 52 52 50 46 45 42 46 47 47 47 48 49 50 51 53 52 54 49 50
26 27 29 32 33 30 31 32 34 34 35 39 38 42 38 32 32 30 30 34 39 40 41 50 53 53 52 48 51 54 52 49 50 52 51 52 53 54 55 55 56 57 55 59
33 34 31 31 31 32 37 36 37 39 39 45 38 39 36 29 25 24 26 31 35 44 49 51 50 51 50 52 55 56 57 58 57 53 55 57 58 58 60 59 59 58 58 61
39 35 33 37 37 35 35 36 36 36 33 39 25 28 28 20 29 35 36 39 49 54 52 48 47 43 46 54 57 58 57 57 59 57 55 60 63 63 63 64 64 64 63 62
49 46 42 31 31 37 33 27 32 36 40 42 36 43 36 35 25 26 28 39 50 54 53 54 48 50 54 54 56 57 56 57 59 60 61 61 63 64 65 66 68 68 67 66
20 20 29 44 33 41 42 45 43 48 52 51 45 41 44 41 49 44 40 43 50 58 57 49 41 47 50 51 56 57 56 60 61 62 64 65 64 65 67 66 67 68 67 66
12 13 18 21 26 28 33 33 37 38 44 40 40 31 29 35 40 43 43 49 50 55 55 50 51 52 50 52 58 57 58 60 61 64 66 65 64 66 67 68 68 68 68 66
17 20 15 20 24 25 29 35 37 40 44 47 46 43 30 41 34 38 41 45 50 55 56 56 62 59 51 54 57 57 60 60 58 58 61 65 67 65 66 64 63 63 65 65
23 26 29 24 24 27 29 31 35 40 40 40 38 40 31 42 39 41 35 50 55 57 57 61 63 61 55 54 56 58 61 64 60 58 60 58 59 66 67 66 62 63 63 65
28 32 33 31 30 31 33 32 30 38 39 41 42 38 37 43 43 37 44 44 50 55 59 62 63 61 61 63 58 54 58 58 56 56 57 57 56 57 62 64 66 66 64 64
32 33 36 38 40 37 36 34 35 33 38 40 40 40 37 38 43 46 50 53 55 57 57 56 57 60 62 62 61 59 53 54 53 51 52 53 55 52 52 53 55 58 59 53
34 35 37 41 40 37 35 37 40 43 39 45 43 46 46 49 48 49 55 51 52 53 54 57 59 60 59 58 58 55 56 53 50 49 50 50 51 51 48 48 50 51 51 48
37 39 39 37 31 31 31 28 31 34 38 43 44 45 36 34 34 42 42 43 46 45 48 50 51 55 57 56 57 56 53 53 52 50 50 49 51 51 47 44 42 45 44 45
36 36 32 27 22 23 22 19 22 22 24 23 26 28 30 33 37 40 41 37 38 46 48 48 50 52 55 58 61 62 60 59 58 56 56 54 51 51 52 49 46 44 44 44
28 29 29 24 21 21 19 16 17 18 14 25 24 24 33 35 35 36 34 38 42 40 43 46 51 55 58 61 63 63 63 61 57 55 50 49 51 52 51 51 51 50 48 42
25 24 24 22 22 20 15 20 18 22 19 17 18 24 31 32 29 22 30 35 38 41 45 50 54 58 58 57 58 57 54 56 57 53 49 45 46 47 49 49 47 50 49 47
26 23 22 21 20 19 20 19 19 19 25 26 25 27 31 28 28 23 31 38 42 44 48 49 52 56 62 59 57 57 52 49 49 48 47 44 41 42 43 46 45 46 48 45
25 21 22 22 24 21 20 19 24 25 25 26 27 29 27 24 29 32 34 37 39 43 45 47 50 47 47 53 52 49 47 43 41 40 43 41 38 39 40 41 40 39 37 41
26 23 23 23 20 17 20 23 24 24 23 22 28 27 23 27 31 32 35 37 40 41 43 48 43 45 47 45 44 41 38 37 34 34 35 36 38 39 40 39 39 38 37 37
24 22 24 26 24 25 27 26 28 25 25 27 33 25 28 29 29 32 34 35 37 40 45 41 43 46 46 43 46 41 32 28 27 27 29 31 34 37 41 42 40 42 41 38
19 24 23 24 25 26 31 37 38 32 32 31 22 23 26 27 29 30 30 31 35 36 42 41 44 47 41 45 43 38 32 28 22 23 26 29 32 34 37 40 43 44 45 42
22 27 29 29 31 28 30 31 30 28 22 19 19 23 27 28 28 28 27 29 32 36 39 43 44 40 34 30 28 29 30 24 22 24 26 30 32 35 38 39 39 40 41 41
25 25 27 26 24 21 21 27 23 16 18 18 20 24 29 31 28 29 28 31 32 36 39 32 35 22 20 23 23 22 20 19 21 19 23 27 24 30 31 29 30 42 47 42
Wind_Direction
229 230 232 235 238 237 231 206 229 219 243 259 270 258 256 254 260 268 264 263 266 266 266 269 268 267 266 263 262 257 255 261 263 267 267 267 269 268 268 269 268 265 262 261
232 233 235 236 236 239 236 236 239 235 233 246 252 261 264 264 264 265 269 271 267 267 264 264 266 266 263 262 261 264 267 266 267 270 268 269 268 267 267 265 267 269 269 265
235 238 237 240 240 242 245 248 251 254 250 251 257 264 269 269 265 262 263 265 265 266 268 268 268 267 266 263 265 265 271 268 267 267 270 267 267 268 268 269 271 265 266 266
241 233 226 246 244 246 252 259 255 253 253 256 257 265 266 274 277 274 268 266 266 265 264 265 263 260 264 270 276 273 263 268 268 267 267 270 269 267 266 268 266 267 264 265
236 240 245 250 249 245 249 250 253 250 252 257 258 264 270 270 272 275 279 283 278 269 262 256 262 266 272 279 274 272 273 270 268 270 270 267 266 268 267 264 264 266 269 264
250 247 234 235 246 248 252 255 257 258 260 261 265 269 273 279 280 275 276 271 270 268 263 266 269 271 274 272 273 272 271 271 269 267 268 268 266 265 265 265 265 266 267 269
250 245 255 254 258 257 264 265 265 265 266 271 281 286 289 279 243 241 239 244 252 266 272 275 273 275 272 269 268 268 268 270 270 267 262 263 265 265 265 266 264 265 265 265
250 250 250 247 256 263 252 251 255 261 256 252 233 239 237 243 242 239 252 244 254 264 270 272 274 276 269 266 267 267 268 268 266 268 266 264 263 263 263 263 264 265 265 266
261 259 245 254 255 253 257 261 266 265 267 270 271 261 253 245 242 245 254 263 262 265 267 271 273 268 268 269 267 268 268 267 268 268 267 265 264 263 263 263 263 264 264 264
270 267 262 265 265 264 268 268 262 261 268 265 268 266 255 250 256 256 252 253 262 262 266 274 277 274 273 273 272 273 271 268 266 268 269 269 268 266 263 264 264 264 264 264
271 280 279 272 273 272 266 269 267 269 268 269 268 260 257 254 251 263 257 256 257 263 274 276 277 277 279 281 281 278 276 272 269 268 266 269 269 268 268 266 265 263 262 262
284 288 287 281 281 278 274 270 266 263 266 269 269 266 259 265 262 248 253 258 262 267 272 274 277 284 285 278 276 276 277 278 279 274 271 266 263 267 268 268 267 265 263 261
285 288 290 290 289 283 282 277 279 259 269 265 260 263 267 267 273 268 265 263 269 273 276 279 283 285 283 283 281 276 278 278 276 275 272 270 267 261 261 263 264 264 264 263
285 287 291 290 288 281 270 258 258 252 245 250 258 262 262 265 269 263 268 273 272 273 277 281 283 283 283 284 284 285 282 280 278 274 272 270 268 265 262 263 263 262 263 262
288 291 292 292 288 280 268 262 249 246 244 252 257 264 275 272 274 272 272 275 277 278 280 281 282 285 286 284 286 286 284 282 279 277 273 268 266 266 263 260 261 260 262 262
295 300 295 291 287 279 275 268 266 263 263 265 265 269 273 272 267 269 275 277 278 280 280 281 283 286 289 290 288 288 285 283 282 279 274 271 263 261 260 262 263 260 261 259
304 303 296 300 278 270 274 284 273 272 270 262 264 264 259 258 265 275 277 291 288 281 286 292 290 289 290 289 287 287 287 283 279 275 271 271 268 264 256 259 262 261 262 262
305 297 295 295 279 271 280 285 263 255 234 246 243 242 254 268 274 280 284 278 284 288 286 288 289 290 292 293 291 290 288 285 279 274 273 270 267 264 262 258 260 261 262 263
298 291 291 288 285 284 279 258 249 276 244 276 258 269 277 275 276 281 276 285 288 289 290 292 296 299 298 296 292 289 286 285 281 271 267 268 263 262 262 262 259 259 261 260
300 287 284 286 280 275 275 273 280 280 254 272 271 280 281 281 280 280 283 286 286 291 293 299 301 297 295 291 291 289 291 290 284 271 263 260 260 260 259 260 262 264 263 264
286 277 276 276 278 281 271 261 270 277 267 274 283 286 282 284 289 292 293 291 295 298 298 301 304 308 308 302 291 290 285 289 289 272 262 256 256 256 256 257 260 265 268 259
275 272 275 278 279 277 266 266 267 267 273 275 299 284 281 288 298 303 302 302 304 305 300 303 302 310 310 309 305 306 304 294 285 268 263 258 252 253 253 255 259 263 268 264
257 262 263 256 256 262 267 267 267 267 268 280 289 280 293 303 302 301 302 302 302 300 302 303 305 308 306 304 309 314 313 296 282 278 270 261 253 254 252 253 260 265 267 268
253 253 250 257 262 264 261 259 264 272 276 281 274 289 296 299 302 304 306 308 299 304 311 308 306 308 304 305 307 298 306 307 295 278 272 265 263 262 260 258 259 261 261 261
261 262 264 268 268 270 268 269 274 275 271 261 281 293 302 307 316 317 320 312 311 317 312 309 315 321 324 312 311 305 307 305 290 286 284 281 275 270 267 266 263 262 256 251
263 265 261 264 261 254 256 265 276 250 248 268 285 298 308 320 324 314 315 313 314 311 319 329 338 350 357 4 2 357 357 352 332 304 283 279 289 288 283 279 274 259 253 253
Height
5761 5763 5767 5770 5771 5773 5775 5778 5779 5785 5787 5783 5779 5780 5782 5784 5784 5782 5784 5786 5787 5787 5787 5787 5788 5786 5787 5788 5791 5792 5795 5794 5796 5796 5798 5798 5798 5800 5801 5801 5802 5803 5806 5807
5755 5758 5763 5763 5764 5766 5769 5770 5771 5774 5774 5775 5773 5772 5771 5777 5778 5777 5777 5776 5777 5776 5778 5777 5776 5775 5774 5773 5778 5779 5782 5785 5783 5783 5786 5786 5787 5787 5788 5790 5791 5792 5793 5797
5748 5754 5755 5755 5757 5758 5760 5761 5763 5766 5766 5765 5764 5762 5765 5767 5767 5767 5768 5768 5769 5770 5768 5768 5767 5764 5762 5762 5766 5775 5772 5772 5774 5775 5774 5775 5776 5775 5776 5778 5779 5782 5783 5785
5745 5748 5746 5748 5749 5752 5753 5755 5755 5756 5756 5755 5759 5753 5757 5759 5758 5758 5759 5759 5761 5761 5760 5760 5757 5752 5753 5754 5758 5760 5763 5761 5762 5763 5764 5763 5764 5764 5765 5766 5769 5770 5771 5773
5740 5741 5744 5742 5743 5744 5744 5747 5747 5746 5746 5747 5749 5747 5750 5754 5754 5754 5753 5751 5748 5749 5750 5743 5743 5744 5746 5749 5747 5745 5747 5751 5752 5751 5752 5753 5753 5752 5752 5754 5755 5756 5757 5760
5732 5733 5733 5735 5737 5737 5736 5740 5739 5738 5740 5736 5742 5743 5745 5748 5749 5750 5748 5744 5738 5737 5734 5734 5737 5737 5738 5737 5735 5735 5735 5735 5738 5742 5740 5738 5739 5740 5738 5739 5741 5744 5746 5744
5724 5725 5726 5727 5728 5730 5730 5732 5732 5731 5730 5729 5738 5737 5738 5743 5740 5737 5739 5734 5729 5726 5725 5725 5726 5729 5727 5723 5722 5721 5724 5724 5722 5725 5727 5724 5724 5725 5726 5726 5727 5729 5731 5733
5714 5718 5720 5721 5721 5720 5721 5723 5723 5719 5720 5720 5724 5720 5727 5729 5729 5728 5727 5726 5719 5717 5717 5714 5717 5717 5712 5712 5710 5709 5711 5709 5708 5708 5709 5710 5709 5708 5709 5710 5711 5713 5716 5717
5707 5711 5711 5707 5711 5711 5712 5712 5716 5709 5709 5709 5715 5719 5721 5719 5715 5718 5715 5713 5711 5704 5703 5705 5707 5702 5700 5699 5696 5695 5697 5694 5694 5693 5692 5691 5693 5692 5692 5693 5694 5697 5700 5702
5703 5704 5704 5704 5704 5706 5704 5706 5703 5702 5699 5701 5703 5706 5707 5705 5705 5703 5702 5699 5699 5693 5693 5696 5694 5689 5689 5686 5683 5682 5680 5679 5678 5675 5673 5674 5676 5674 5674 5676 5679 5682 5683 5685
5696 5696 5701 5699 5698 5697 5698 5695 5696 5695 5692 5689 5691 5696 5701 5689 5694 5694 5691 5689 5685 5683 5681 5680 5676 5676 5677 5673 5668 5665 5661 5661 5661 5661 5659 5656 5655 5656 5656 5660 5662 5665 5666 5668
5690 5689 5687 5692 5691 5689 5687 5687 5685 5682 5684 5682 5680 5678 5688 5678 5681 5680 5680 5677 5675 5673 5670 5664 5661 5661 5661 5661 5657 5652 5647 5642 5643 5642 5640 5642 5642 5639 5638 5639 5643 5646 5649 5650
5682 5679 5678 5679 5681 5676 5676 5674 5674 5672 5671 5671 5670 5674 5674 5668 5668 5668 5665 5665 5666 5661 5656 5652 5649 5648 5642 5637 5637 5638 5633 5630 5627 5625 5624 5623 5625 5624 5623 5622 5624 5627 5629 5633
5673 5673 5669 5668 5667 5666 5666 5666 5664 5661 5661 5658 5659 5660 5664 5661 5653 5655 5653 5651 5648 5646 5644 5640 5636 5631 5626 5623 5620 5616 5617 5613 5611 5610 5608 5607 5606 5606 5607 5606 5608 5610 5612 5616
5665 5663 5660 5656 5651 5650 5652 5651 5653 5650 5651 5648 5653 5648 5653 5648 5647 5643 5635 5640 5637 5632 5630 5626 5621 5616 5613 5608 5605 5601 5598 5597 5595 5594 5592 5591 5590 5590 5591 5592 5593 5595 5598 5602
5654 5652 5646 5644 5641 5638 5637 5641 5640 5641 5641 5638 5640 5638 5639 5634 5631 5628 5629 5624 5623 5622 5617 5614 5609 5603 5598 5594 5589 5586 5583 5580 5578 5577 5575 5574 5574 5574 5576 5578 5579 5581 5583 5585
5643 5638 5634 5635 5632 5630 5632 5632 5631 5631 5630 5630 5630 5630 5627 5624 5621 5620 5617 5617 5614 5607 5605 5602 5597 5592 5585 5579 5573 5569 5566 5562 5560 5558 5557 5557 5557 5557 5560 5562 5564 5567 5568 5569
5636 5631 5628 5628 5625 5625 5626 5625 5623 5624 5624 5622 5622 5622 5619 5616 5614 5613 5613 5606 5602 5601 5596 5591 5584 5578 5572 5565 5558 5552 5547 5543 5540 5539 5539 5539 5540 5541 5542 5546 5549 5551 5552 5555
5630 5625 5623 5621 5620 5621 5621 5619 5620 5618 5616 5615 5615 5613 5611 5607 5607 5609 5602 5598 5594 5589 5583 5576 5569 5563 5556 5550 5542 5535 5530 5523 5520 5521 5522 5523 5523 5525 5527 5529 5533 5535 5537 5541
5622 5620 5619 5617 5615 5615 5613 5613 5613 5612 5609 5610 5609 5606 5603 5602 5598 5600 5595 5590 5584 5578 5571 5565 5560 5553 5544 5536 5527 5520 5515 5508 5503 5502 5504 5507 5509 5511 5514 5516 5518 5520 5523 5526
5616 5614 5613 5611 5609 5610 5609 5608 5607 5606 5608 5603 5601 5598 5596 5595 5591 5588 5584 5580 5574 5568 5563 5556 5549 5540 5530 5520 5511 5505 5500 5495 5489 5488 5491 5494 5497 5499 5502 5504 5505 5507 5509 5512
5610 5608 5607 5606 5604 5603 5602 5602 5602 5600 5598 5596 5594 5590 5589 5588 5584 5579 5574 5569 5564 5558 5553 5546 5538 5530 5520 5510 5500 5494 5486 5482 5479 5479 5482 5484 5486 5488 5490 5492 5494 5496 5498 5501
5603 5602 5601 5601 5600 5597 5597 5595 5594 5594 5593 5591 5588 5585 5582 5580 5576 5571 5566 5562 5556 5550 5543 5535 5525 5518 5510 5501 5492 5486 5480 5475 5474 5474 5474 5474 5475 5477 5479 5481 5483 5485 5486 5489
5595 5594 5593 5592 5592 5590 5588 5586 5585 5588 5587 5584 5582 5581 5577 5574 5569 5564 5558 5553 5548 5541 5533 5524 5516 5507 5499 5490 5484 5478 5474 5470 5468 5466 5465 5465 5466 5467 5468 5468 5470 5471 5474 5476
5587 5585 5585 5585 5583 5582 5581 5579 5579 5579 5579 5578 5577 5575 5570 5565 5561 5554 5550 5545 5539 5532 5524 5515 5506 5497 5489 5481 5475 5470 5467 5464 5463 5461 5458 5457 5456 5455 5455 5454 5455 5456 5459 5462
5578 5578 5577 5575 5574 5574 5573 5573 5573 5573 5574 5574 5573 5569 5563 5556 5552 5548 5543 5537 5531 5525 5517 5508 5501 5493 5486 5479 5473 5469 5465 5462 5458 5454 5449 5447 5444 5442 5439 5439 5440 5441 5445 5448